Location: Unspecified
(0.0000°N, 0.0000°E)
Time: 09:45:57
(UTC+00:00)

A-11 Canister half - Pass Details

Date: 01 August 2021
Orbit: 1515 x 1685 km, 47.2° (Epoch: 27 September)

Event Time Altitude Azimuth Distance (km) Brightness Sun altitude
Rises 14:31:42 0° 233° (SW) 4,670 11.8 50.1°
Reaches altitude 10° 14:34:51 10° 239° (WSW) 3,700 11.4 49.4°
Maximum altitude 14:43:43 48° 310° (NW) 1,951 12.2 47.4°
Drops below altitude 10° 14:52:53 10° 22° (NNE) 3,807 11.2 45.4°
Sets 14:56:12 0° 28° (NNE) 4,816 11.6 44.6°
